[[{"header":{"parameterUnit":"m.s-1","parameterCategory":1,"la1":30.2992,"la2":30.254,"lo1":-89.0895,"lo2":-89.0443,"dy":0.0025,"dx":0.0025,"nx":19,"ny":19,"refTime":"2026-03-16T03:00:00:Z","depth":0,"parameterNumber":2,"parameterNumberName":"U-component_of_WINDS"},"data":[0,0,0,-2.6803,-2.6805,-2.6871,-2.6871,-2.6953,-2.6954,0,0,0,0,0,0,0,0,0,0,0,-2.6783,-2.6784,-2.6803,-2.6805,-2.6871,-2.6871,-2.6953,-2.6954,0,0,0,0,0,0,0,0,0,0,0,-2.6783,-2.6784,-2.6785,-2.6805,-2.687,-2.6871,-2.6953,-2.6903,0,0,0,0,0,0,0,0,0,0,-2.6839,-2.6821,-2.6784,-2.6785,-2.6805,-2.687,-2.6871,-2.6901,-2.6906,-2.6922,0,-2.6938,0,-2.6947,-2.6959,-2.6959,0,0,0,-2.6804,-2.6817,-2.6835,-2.6785,-2.6806,-2.687,-2.6841,-2.6904,-2.691,-2.693,-2.6939,-2.6942,-2.6949,-2.696,-2.696,-2.7056,-2.7057,0,0,-2.6801,-2.6795,-2.6831,-2.6839,-2.683,-2.6839,-2.6843,-2.6908,-2.6917,-2.6939,-2.6944,-2.695,-2.696,-2.6961,-2.7056,-2.7057,0,0,0,-2.679,-2.6792,-2.6809,-2.6836,-2.6848,-2.6841,-2.6845,-2.6914,-2.692,-2.6945,-2.6951,-2.6961,-2.6962,-2.7055,-2.7056,-2.7073,0,0,0,-2.6788,-2.6786,-2.6807,-2.6804,-2.6847,-2.6882,-2.685,-2.6916,-2.6923,-2.695,-2.6961,-2.6962,-2.7055,-2.7056,-2.7071,-2.7081,0,0,0,-2.6779,-2.6785,-2.6795,-2.6804,-2.6832,-2.6881,-2.6891,-2.6917,-2.6927,-2.6959,-2.6963,-2.7055,-2.7056,-2.707,-2.7079,-2.7104,0,0,0,-2.6767,-2.6809,-2.6795,-2.6844,-2.6832,-2.6892,-2.6891,-2.6935,-2.6966,-2.6961,-2.7055,-2.7056,-2.707,-2.7078,-2.7103,-2.7123,-2.7132,0,0,-2.6816,-2.6814,-2.6844,-2.6833,-2.6895,-2.6882,-2.6946,-2.6978,-2.6986,-2.7032,-2.7035,-2.7072,-2.7079,-2.7104,-2.7184,-2.7191,0,0,0,-2.6857,-2.6878,-2.6895,-2.6924,-2.6951,-2.6974,-2.6998,-2.701,-2.705,-2.7009,-2.7089,-2.7093,-2.7108,-2.7118,-2.7124,-2.7136,-2.7061,-2.7061,-2.7061,-2.6916,-2.6925,-2.6974,-2.6991,-2.7019,-2.7044,-2.7067,-2.7087,-2.7087,-2.7106,-2.7119,-2.7167,-2.7179,-2.7183,-2.7196,-2.7132,-2.7132,-2.7132,-2.7132,-2.6987,-2.7017,-2.7018,-2.7065,-2.7074,-2.7113,-2.7139,-2.7138,-2.7175,-2.7158,-2.7171,-2.7151,-2.719,-2.7202,-2.7134,-2.7134,-2.7133,-2.7133,-2.7133,-2.7026,-2.7042,-2.7057,-2.71,-2.7132,-2.7148,-2.7184,-2.7191,-2.7198,-2.7211,-2.7225,-2.7225,-2.7224,-2.7218,-2.7218,-2.7218,-2.7218,-2.7218,-2.7218,-2.7059,-2.7076,-2.7106,-2.7138,-2.7158,-2.7184,-2.721,-2.7229,-2.7252,-2.7254,-2.7254,-2.7252,-2.7193,-2.7177,-2.7221,-2.722,-2.722,-2.722,-2.722,-2.7125,-2.7111,-2.7157,-2.7177,-2.7216,-2.7247,-2.7256,-2.7294,-2.7311,-2.7328,-2.7324,-2.728,-2.7278,-2.7273,-2.726,-2.7323,-2.7323,-2.7323,-2.7323,-2.7156,-2.7157,-2.7205,-2.7236,-2.7268,-2.7281,-2.7331,-2.7352,-2.737,-2.7381,-2.7373,-2.7357,-2.7352,-2.7353,-2.7347,-2.7335,-2.7415,-2.7415,-2.7415,-2.7196,-2.7201,-2.7242,-2.7262,-2.7293,-2.7319,-2.7366,-2.74,-2.7419,-2.7419,-2.7389,-2.7385,-2.7359,-2.7351,-2.7347,-2.7338,-2.7315,0,0]},{"header":{"parameterUnit":"m.s-1","parameterCategory":1,"la1":30.2992,"la2":30.254,"lo1":-89.0895,"lo2":-89.0443,"dy":0.0025,"dx":0.0025,"nx":19,"ny":19,"refTime":"2026-03-16T03:00:00:Z","depth":0,"parameterNumber":3,"parameterNumberName":"V-component_of_WINDS"},"data":[0,0,0,6.8853,6.8853,6.8834,6.8834,6.8811,6.8811,0,0,0,0,0,0,0,0,0,0,0,6.8861,6.8861,6.8853,6.8853,6.8834,6.8834,6.8811,6.8811,0,0,0,0,0,0,0,0,0,0,0,6.8861,6.8861,6.8861,6.8852,6.8834,6.8834,6.8812,6.8824,0,0,0,0,0,0,0,0,0,0,6.8842,6.8852,6.8861,6.8861,6.8852,6.8834,6.8834,6.8825,6.8824,6.8821,0,6.8821,0,6.8817,6.881,6.881,0,0,0,6.8849,6.8853,6.8847,6.8861,6.8852,6.8834,6.8842,6.8824,6.8823,6.8819,6.8821,6.882,6.8816,6.881,6.881,6.8815,6.8815,0,0,6.885,6.8858,6.8848,6.8846,6.8852,6.8842,6.8841,6.8823,6.8824,6.8821,6.8819,6.8816,6.881,6.881,6.8815,6.8815,0,0,0,6.8855,6.8858,6.8852,6.8847,6.8844,6.8842,6.884,6.8825,6.8823,6.8819,6.8816,6.881,6.8809,6.8814,6.8815,6.8833,0,0,0,6.8856,6.8861,6.8853,6.8857,6.8844,6.8835,6.8843,6.8824,6.8822,6.8816,6.881,6.8809,6.8814,6.8815,6.8832,6.8839,0,0,0,6.8861,6.8862,6.8861,6.8858,6.8851,6.8835,6.8831,6.8823,6.882,6.881,6.8809,6.8814,6.8814,6.8831,6.8838,6.8845,0,0,0,6.8867,6.8873,6.8861,6.8866,6.8851,6.8848,6.8831,6.8827,6.8821,6.881,6.8814,6.8815,6.8831,6.8837,6.8844,6.8852,6.8857,0,0,6.8878,6.8874,6.8877,6.8866,6.8868,6.885,6.8853,6.8837,6.8827,6.8819,6.8819,6.8832,6.8838,6.8845,6.8878,6.8882,0,0,0,6.8883,6.8885,6.8884,6.8882,6.8874,6.8868,6.8853,6.8848,6.8842,6.8826,6.8837,6.8839,6.8843,6.8846,6.885,6.8853,6.8817,6.8817,6.8817,6.8906,6.8899,6.8904,6.8896,6.8893,6.8882,6.8879,6.887,6.8857,6.8861,6.8857,6.888,6.8884,6.8886,6.889,6.8861,6.8861,6.8862,6.8862,6.8922,6.8924,6.8917,6.8918,6.891,6.891,6.89,6.8893,6.8892,6.888,6.8882,6.887,6.8891,6.8893,6.8863,6.8863,6.8862,6.8862,6.8862,6.8936,6.8936,6.8935,6.8935,6.8935,6.8926,6.8928,6.8919,6.8909,6.8913,6.891,6.8909,6.8908,6.8913,6.8913,6.8913,6.8913,6.8913,6.8913,6.8951,6.8949,6.8953,6.8951,6.8952,6.895,6.8943,6.8942,6.8938,6.8931,6.8931,6.892,6.8895,6.8889,6.8914,6.8914,6.8914,6.8913,6.8913,6.8968,6.8965,6.8971,6.8972,6.8972,6.8975,6.8966,6.8966,6.8964,6.8966,6.8956,6.8939,6.8933,6.893,6.8925,6.8958,6.8958,6.8958,6.8958,6.898,6.8978,6.8986,6.8989,6.8991,6.8986,6.8994,6.899,6.8984,6.8982,6.8977,6.897,6.8968,6.8962,6.8959,6.8954,6.8993,6.8994,6.8994,6.8991,6.899,6.8999,6.8998,6.8999,6.8999,6.9007,6.901,6.9002,6.8995,6.8981,6.898,6.8968,6.8965,6.8954,6.8949,6.894,0,0]}]]